Regional Weather Roundup
Issued by NWS Spokane, WA

Home | Current Version | Previous Version | Text Only | Print | Product List | Glossary On
Versions: 1 2 3 4 5 6 7 8 9 10 11 12 13 14 15 16 17 18 19 20 21 22 23 24 25 26 27 28 29 30 31 32 33 34 35 36 37 38 39 40 41 42 43 44 45 46 47 48 49 50
000
NZUS01 KOTX 301110
RWROTX
EASTERN WASHINGTON/NORTHERN IDAHO ROUNDUP
NATIONAL WEATHER SERVICE, SPOKANE WA
400 AM PDT SAT MAY 30 2015

Note: "fair" indicated few or no clouds below 12,000 feet with no
significant weather and/or obstructions to visibility.

...NORTHEAST WASHINGTON AND NORTHERN IDAHO PANHANDLE...

CITY           SKY/WX    TMP DP  RH WIND       PRES   REMARKS
SPOKANE INTL   CLOUDY    61  49  64 E3        29.93F
SPOKANE DOWNTO CLOUDY    61  52  72 NE5       29.93F
COEUR D ALENE  CLOUDY    61  50  67 NE9       29.96F
DEER PARK      CLOUDY    56  54  93 NE8       29.94S
SANDPOINT      LGT RAIN  55  54  94 CALM      29.98S
BONNERS FERRY  FAIR      55  54  94 N5        29.98S

...SOUTHEAST WASHINGTON AND SOUTHERN IDAHO PANHANDLE...

CITY           SKY/WX    TMP DP  RH WIND       PRES   REMARKS
WALLA WALLA    CLOUDY    68  53  58 SE5       29.86R
PULLMAN/MOSCOW CLOUDY    59  52  77 E7        29.94S
LEWISTON       CLOUDY    68  54  60 SW3       29.89R
LOWELL           N/A     57  55  93 CALM      30.00R

...COLUMBIA BASIN...

CITY           SKY/WX    TMP DP  RH WIND       PRES   REMARKS
EPHRATA        MOCLDY    63  53  70 N10       29.85F
MOSES LAKE     MOCLDY    63  52  67 NE5       29.85F
TRI CITIES     CLOUDY    73  53  49 SW9       29.82S
HERMISTON      CLOUDY    66  54  65 S8        29.82F
PENDLETON      CLOUDY    63  53  70 W3        29.87R

...EAST SLOPES CASCADES...

CITY           SKY/WX    TMP DP  RH WIND       PRES   REMARKS
THE DALLES     PTCLDY    66  53  63 NW7       29.84S
YAKIMA         CLOUDY    62  54  74 W6        29.84S
ELLENSBURG     MOCLDY    59  52  77 N5        29.86F
WENATCHEE      MOCLDY    63  57  81 CALM      29.86F
OMAK           MOCLDY    56  52  86 NW6       29.88S

...SOUTHERN BRITISH COLUMBIA...

CITY           SKY/WX    TMP DP  RH WIND       PRES   REMARKS
PENTICTON      MOCLDY    57  54  88 E2        29.89S
CRANBROOK      MOCLDY    50  46  87 W5        30.01S

...WESTERN MONTANA...

CITY           SKY/WX    TMP DP  RH WIND       PRES   REMARKS
MISSOULA       PTCLDY    48  45  89 CALM      30.01S

...NEIGHBORING CITIES...

CITY           SKY/WX    TMP DP  RH WIND       PRES   REMARKS
SEATTLE        PTCLDY    51  46  83 SW5       29.96R
CALGARY        MOCLDY    43  36  75 VRB2      30.05F



USA.gov is the U.S. government's official web portal to all federal, state and local government web resources and services.